Time,TemperatureF,DewpointF,PressureIn,WindDirection,WindDirectionDegrees,WindSpeedMPH,WindSpeedGustMPH,Humidity,HourlyPrecipIn,Conditions,Clouds,dailyrainin,SoftwareType,DateUTC
2013-02-19 00:02:00,52.0,31.0,29.79,NW,321,3.0,12.0,44,0.00,,,0.00,,2013-02-19 06:02:00,
2013-02-19 00:11:00,52.0,31.0,29.79,NW,321,3.0,12.0,44,0.00,,,0.00,,2013-02-19 06:11:00,
2013-02-19 00:21:00,51.0,30.0,29.80,WNW,300,4.0,8.0,44,0.00,,,0.00,,2013-02-19 06:21:00,
2013-02-19 00:32:00,51.0,30.0,29.80,NNW,332,3.0,9.0,44,0.00,,,0.00,,2013-02-19 06:32:00,
2013-02-19 00:42:00,51.0,30.0,29.80,NNW,332,3.0,9.0,44,0.00,,,0.00,,2013-02-19 06:42:00,
2013-02-19 00:52:00,51.0,30.0,29.80,NNW,332,3.0,9.0,44,0.00,,,0.00,,2013-02-19 06:52:00,
2013-02-19 01:01:00,50.0,30.0,29.80,NNW,334,1.0,6.0,46,0.00,,,0.00,,2013-02-19 07:01:00,
2013-02-19 01:11:00,50.0,30.0,29.80,NNW,334,1.0,6.0,46,0.00,,,0.00,,2013-02-19 07:11:00,
2013-02-19 01:22:00,49.0,30.0,29.80,NW,325,1.0,7.0,47,0.00,,,0.00,,2013-02-19 07:22:00,
2013-02-19 01:32:00,49.0,30.0,29.80,NW,309,1.0,8.0,47,0.00,,,0.00,,2013-02-19 07:32:00,
2013-02-19 01:42:00,49.0,30.0,29.80,NW,309,1.0,8.0,47,0.00,,,0.00,,2013-02-19 07:42:00,
2013-02-19 01:52:00,49.0,30.0,29.80,NNW,332,1.0,8.0,47,0.00,,,0.00,,2013-02-19 07:52:00,
2013-02-19 02:02:00,48.0,29.0,29.80,North,355,1.0,6.0,48,0.00,,,0.00,,2013-02-19 08:02:00,
2013-02-19 02:11:00,48.0,29.0,29.80,North,355,1.0,6.0,48,0.00,,,0.00,,2013-02-19 08:11:00,
2013-02-19 02:21:00,47.0,29.0,29.80,ENE,62,2.0,5.0,50,0.00,,,0.00,,2013-02-19 08:21:00,
2013-02-19 02:31:00,47.0,30.0,29.80,NNW,343,1.0,5.0,51,0.00,,,0.00,,2013-02-19 08:31:00,
2013-02-19 02:42:00,47.0,30.0,29.80,NNW,343,1.0,5.0,51,0.00,,,0.00,,2013-02-19 08:42:00,
2013-02-19 02:52:00,47.0,30.0,29.79,NNE,25,0.0,6.0,51,0.00,,,0.00,,2013-02-19 08:52:00,
2013-02-19 03:01:00,46.0,30.0,29.79,NE,37,0.0,2.0,53,0.00,,,0.00,,2013-02-19 09:01:00,
2013-02-19 03:11:00,46.0,30.0,29.79,NE,37,0.0,2.0,53,0.00,,,0.00,,2013-02-19 09:11:00,
2013-02-19 03:22:00,46.0,30.0,29.78,NE,48,2.0,8.0,53,0.00,,,0.00,,2013-02-19 09:22:00,
2013-02-19 03:32:00,46.0,29.0,29.80,NNE,32,0.0,7.0,52,0.00,,,0.00,,2013-02-19 09:32:00,
2013-02-19 03:42:00,46.0,29.0,29.80,NNE,32,0.0,7.0,52,0.00,,,0.00,,2013-02-19 09:42:00,
2013-02-19 03:52:00,45.0,29.0,29.80,North,5,0.0,3.0,53,0.00,,,0.00,,2013-02-19 09:52:00,
2013-02-19 04:02:00,44.0,29.0,29.81,North,355,0.0,2.0,56,0.00,,,0.00,,2013-02-19 10:02:00,
2013-02-19 04:11:00,44.0,29.0,29.81,North,355,0.0,2.0,56,0.00,,,0.00,,2013-02-19 10:11:00,
2013-02-19 04:21:00,43.0,29.0,29.81,NNE,17,0.0,2.0,58,0.00,,,0.00,,2013-02-19 10:21:00,
2013-02-19 04:32:00,43.0,29.0,29.81,NNE,18,0.0,2.0,58,0.00,,,0.00,,2013-02-19 10:32:00,
2013-02-19 04:42:00,43.0,29.0,29.81,NNE,18,0.0,2.0,58,0.00,,,0.00,,2013-02-19 10:42:00,
2013-02-19 04:51:00,43.0,29.0,29.83,NNE,14,0.0,2.0,58,0.00,,,0.00,,2013-02-19 10:51:00,
2013-02-19 05:01:00,42.0,29.0,29.83,NNE,13,0.0,1.0,59,0.00,,,0.00,,2013-02-19 11:01:00,
2013-02-19 05:11:00,42.0,29.0,29.83,NNE,13,0.0,1.0,59,0.00,,,0.00,,2013-02-19 11:11:00,
2013-02-19 05:22:00,42.0,30.0,29.84,NNE,13,0.0,0.0,61,0.00,,,0.00,,2013-02-19 11:22:00,
2013-02-19 05:32:00,41.0,29.0,29.85,NNE,12,1.0,4.0,62,0.00,,,0.00,,2013-02-19 11:32:00,
2013-02-19 05:42:00,41.0,29.0,29.85,NNE,12,1.0,4.0,62,0.00,,,0.00,,2013-02-19 11:42:00,
2013-02-19 05:52:00,42.0,29.0,29.86,NE,39,0.0,4.0,59,0.00,,,0.00,,2013-02-19 11:52:00,
2013-02-19 06:02:00,41.0,28.0,29.87,NNE,25,1.0,3.0,60,0.00,,,0.00,,2013-02-19 12:02:00,
2013-02-19 06:12:00,41.0,28.0,29.87,NNE,25,1.0,3.0,60,0.00,,,0.00,,2013-02-19 12:12:00,
2013-02-19 06:22:00,41.0,28.0,29.87,NNE,25,1.0,3.0,60,0.00,,,0.00,,2013-02-19 12:22:00,
2013-02-19 06:32:00,43.0,28.0,29.87,NNE,19,4.0,13.0,55,0.00,,,0.00,,2013-02-19 12:32:00,
2013-02-19 06:42:00,43.0,28.0,29.87,NNE,19,4.0,13.0,55,0.00,,,0.00,,2013-02-19 12:42:00,
2013-02-19 06:52:00,43.0,28.0,29.87,NNE,19,4.0,13.0,55,0.00,,,0.00,,2013-02-19 12:52:00,
2013-02-19 07:02:00,42.0,27.0,29.90,NNE,30,1.0,6.0,56,0.00,,,0.00,,2013-02-19 13:02:00,
2013-02-19 07:11:00,42.0,27.0,29.90,NNE,30,1.0,6.0,56,0.00,,,0.00,,2013-02-19 13:11:00,
2013-02-19 07:22:00,42.0,28.0,29.91,NNE,20,0.0,3.0,58,0.00,,,0.00,,2013-02-19 13:22:00,
2013-02-19 07:32:00,40.0,27.0,29.92,NNE,20,0.0,0.0,60,0.00,,,0.00,,2013-02-19 13:32:00,
2013-02-19 07:42:00,40.0,27.0,29.92,NNE,20,0.0,0.0,60,0.00,,,0.00,,2013-02-19 13:42:00,
2013-02-19 07:52:00,40.0,28.0,29.94,NNE,20,0.0,0.0,62,0.00,,,0.00,,2013-02-19 13:52:00,
2013-02-19 08:01:00,40.0,29.0,29.96,NNE,20,0.0,0.0,64,0.00,,,0.00,,2013-02-19 14:01:00,
2013-02-19 08:11:00,40.0,29.0,29.96,NNE,20,0.0,0.0,64,0.00,,,0.00,,2013-02-19 14:11:00,
2013-02-19 08:21:00,40.0,29.0,29.96,NNE,20,0.0,0.0,65,0.00,,,0.00,,2013-02-19 14:21:00,
2013-02-19 08:32:00,42.0,30.0,29.95,ENE,58,1.0,4.0,63,0.00,,,0.00,,2013-02-19 14:32:00,
2013-02-19 08:42:00,42.0,30.0,29.95,ENE,58,1.0,4.0,63,0.00,,,0.00,,2013-02-19 14:42:00,
2013-02-19 08:52:00,44.0,30.0,29.97,East,94,1.0,5.0,57,0.00,,,0.00,,2013-02-19 14:52:00,
2013-02-19 09:01:00,44.0,30.0,29.97,East,94,1.0,5.0,57,0.00,,,0.00,,2013-02-19 15:01:00,
2013-02-19 09:11:00,44.0,30.0,29.97,East,94,1.0,5.0,57,0.00,,,0.00,,2013-02-19 15:11:00,
2013-02-19 09:21:00,46.0,27.0,29.98,NE,49,2.0,7.0,48,0.00,,,0.00,,2013-02-19 15:21:00,
2013-02-19 09:32:00,47.0,27.0,29.98,East,101,5.0,9.0,45,0.00,,,0.00,,2013-02-19 15:32:00,
2013-02-19 09:42:00,47.0,27.0,29.98,East,101,5.0,9.0,45,0.00,,,0.00,,2013-02-19 15:42:00,
2013-02-19 09:52:00,47.0,26.0,29.99,ENE,61,4.0,10.0,43,0.00,,,0.00,,2013-02-19 15:52:00,
2013-02-19 10:02:00,48.0,26.0,29.98,ENE,65,4.0,8.0,42,0.00,,,0.00,,2013-02-19 16:02:00,
2013-02-19 10:11:00,48.0,26.0,29.98,ENE,65,4.0,8.0,42,0.00,,,0.00,,2013-02-19 16:11:00,
2013-02-19 10:22:00,49.0,26.0,29.98,NNE,31,4.0,9.0,40,0.00,,,0.00,,2013-02-19 16:22:00,
2013-02-19 10:32:00,50.0,26.0,29.98,ENE,71,5.0,10.0,39,0.00,,,0.00,,2013-02-19 16:32:00,
2013-02-19 10:41:00,50.0,26.0,29.98,ENE,71,5.0,10.0,39,0.00,,,0.00,,2013-02-19 16:41:00,
2013-02-19 10:51:00,51.0,27.0,29.98,ENE,76,2.0,7.0,39,0.00,,,0.00,,2013-02-19 16:51:00,
2013-02-19 11:01:00,52.0,26.0,29.98,East,79,4.0,8.0,36,0.00,,,0.00,,2013-02-19 17:01:00,
2013-02-19 11:11:00,52.0,26.0,29.98,East,79,4.0,8.0,36,0.00,,,0.00,,2013-02-19 17:11:00,
2013-02-19 11:21:00,53.0,26.0,29.98,ENE,63,4.0,12.0,35,0.00,,,0.00,,2013-02-19 17:21:00,
2013-02-19 11:32:00,54.0,26.0,29.99,North,11,4.0,10.0,34,0.00,,,0.00,,2013-02-19 17:32:00,
2013-02-19 11:42:00,54.0,26.0,29.99,North,11,4.0,10.0,34,0.00,,,0.00,,2013-02-19 17:42:00,
2013-02-19 11:52:00,54.0,26.0,29.98,NE,35,4.0,12.0,34,0.00,,,0.00,,2013-02-19 17:52:00,
2013-02-19 12:01:00,55.0,25.0,29.98,NE,48,6.0,12.0,31,0.00,,,0.00,,2013-02-19 18:01:00,
2013-02-19 12:11:00,55.0,25.0,29.98,NE,48,6.0,12.0,31,0.00,,,0.00,,2013-02-19 18:11:00,
2013-02-19 12:21:00,55.0,24.0,29.98,NE,37,4.0,10.0,30,0.00,,,0.00,,2013-02-19 18:21:00,
2013-02-19 12:32:00,57.0,23.0,29.97,East,86,5.0,11.0,27,0.00,,,0.00,,2013-02-19 18:32:00,
2013-02-19 12:42:00,57.0,23.0,29.97,East,86,5.0,11.0,27,0.00,,,0.00,,2013-02-19 18:42:00,
2013-02-19 12:51:00,58.0,25.0,29.96,NE,50,3.0,11.0,28,0.00,,,0.00,,2013-02-19 18:51:00,
2013-02-19 13:01:00,58.0,23.0,29.95,NE,34,4.0,8.0,26,0.00,,,0.00,,2013-02-19 19:01:00,
2013-02-19 13:11:00,58.0,23.0,29.95,NE,34,4.0,8.0,26,0.00,,,0.00,,2013-02-19 19:11:00,
2013-02-19 13:21:00,59.0,22.0,29.94,NNE,30,2.0,10.0,24,0.00,,,0.00,,2013-02-19 19:21:00,
2013-02-19 13:32:00,59.0,23.0,29.93,ENE,64,3.0,8.0,25,0.00,,,0.00,,2013-02-19 19:32:00,
2013-02-19 13:41:00,59.0,23.0,29.93,ENE,64,3.0,8.0,25,0.00,,,0.00,,2013-02-19 19:41:00,
2013-02-19 13:51:00,60.0,24.0,29.92,ENE,57,2.0,9.0,25,0.00,,,0.00,,2013-02-19 19:51:00,
2013-02-19 14:01:00,61.0,24.0,29.91,East,80,3.0,12.0,24,0.00,,,0.00,,2013-02-19 20:01:00,
2013-02-19 14:12:00,61.0,24.0,29.91,East,80,3.0,12.0,24,0.00,,,0.00,,2013-02-19 20:12:00,
2013-02-19 14:21:00,60.0,23.0,29.90,ESE,113,6.0,13.0,24,0.00,,,0.00,,2013-02-19 20:21:00,
2013-02-19 14:32:00,61.0,23.0,29.89,NE,42,4.0,11.0,23,0.00,,,0.00,,2013-02-19 20:32:00,
2013-02-19 14:42:00,61.0,23.0,29.89,NE,42,4.0,11.0,23,0.00,,,0.00,,2013-02-19 20:42:00,
2013-02-19 14:52:00,61.0,23.0,29.89,NNE,22,4.0,10.0,23,0.00,,,0.00,,2013-02-19 20:52:00,
2013-02-19 15:02:00,62.0,23.0,29.88,ESE,109,7.0,11.0,22,0.00,,,0.00,,2013-02-19 21:02:00,
2013-02-19 15:11:00,62.0,23.0,29.88,ESE,109,7.0,11.0,22,0.00,,,0.00,,2013-02-19 21:11:00,
2013-02-19 15:21:00,62.0,24.0,29.87,East,79,6.0,11.0,23,0.00,,,0.00,,2013-02-19 21:21:00,
2013-02-19 15:32:00,62.0,23.0,29.86,East,80,6.0,11.0,22,0.00,,,0.00,,2013-02-19 21:32:00,
2013-02-19 15:42:00,62.0,23.0,29.86,East,80,6.0,11.0,22,0.00,,,0.00,,2013-02-19 21:42:00,
2013-02-19 15:51:00,61.0,23.0,29.84,NE,53,4.0,13.0,23,0.00,,,0.00,,2013-02-19 21:51:00,
2013-02-19 16:02:00,61.0,24.0,29.84,ESE,109,3.0,11.0,24,0.00,,,0.00,,2013-02-19 22:02:00,
2013-02-19 16:11:00,61.0,24.0,29.84,ESE,109,3.0,11.0,24,0.00,,,0.00,,2013-02-19 22:11:00,
2013-02-19 16:21:00,61.0,24.0,29.84,East,85,5.0,11.0,24,0.00,,,0.00,,2013-02-19 22:21:00,
2013-02-19 16:32:00,61.0,23.0,29.84,ESE,117,7.0,13.0,23,0.00,,,0.00,,2013-02-19 22:32:00,
2013-02-19 16:41:00,61.0,23.0,29.84,ESE,117,7.0,13.0,23,0.00,,,0.00,,2013-02-19 22:41:00,
2013-02-19 16:52:00,61.0,23.0,29.84,East,99,6.0,14.0,23,0.00,,,0.00,,2013-02-19 22:52:00,
2013-02-19 17:01:00,60.0,23.0,29.83,ENE,64,5.0,13.0,24,0.00,,,0.00,,2013-02-19 23:01:00,
2013-02-19 17:11:00,60.0,23.0,29.83,ENE,64,5.0,13.0,24,0.00,,,0.00,,2013-02-19 23:11:00,
2013-02-19 17:21:00,60.0,25.0,29.84,NE,48,6.0,14.0,26,0.00,,,0.00,,2013-02-19 23:21:00,
2013-02-19 17:32:00,59.0,24.0,29.83,SE,142,5.0,12.0,26,0.00,,,0.00,,2013-02-19 23:32:00,
2013-02-19 17:41:00,59.0,24.0,29.83,SE,142,5.0,12.0,26,0.00,,,0.00,,2013-02-19 23:41:00,
2013-02-19 17:52:00,58.0,24.0,29.84,East,90,6.0,10.0,27,0.00,,,0.00,,2013-02-19 23:52:00,
2013-02-19 18:01:00,57.0,23.0,29.84,NE,48,3.0,9.0,27,0.00,,,0.00,,2013-02-20 00:01:00,
2013-02-19 18:11:00,57.0,23.0,29.84,NE,48,3.0,9.0,27,0.00,,,0.00,,2013-02-20 00:11:00,
2013-02-19 18:21:00,57.0,25.0,29.83,East,92,3.0,10.0,29,0.00,,,0.00,,2013-02-20 00:21:00,
2013-02-19 18:32:00,56.0,26.0,29.83,ENE,75,4.0,9.0,31,0.00,,,0.00,,2013-02-20 00:32:00,
2013-02-19 18:42:00,56.0,26.0,29.83,ENE,75,4.0,9.0,31,0.00,,,0.00,,2013-02-20 00:42:00,
2013-02-19 18:52:00,56.0,27.0,29.83,ESE,119,3.0,7.0,32,0.00,,,0.00,,2013-02-20 00:52:00,
2013-02-19 19:02:00,56.0,27.0,29.84,East,86,2.0,6.0,33,0.00,,,0.00,,2013-02-20 01:02:00,
2013-02-19 19:11:00,56.0,27.0,29.84,East,86,2.0,6.0,33,0.00,,,0.00,,2013-02-20 01:11:00,
2013-02-19 19:21:00,56.0,27.0,29.84,East,86,2.0,6.0,33,0.00,,,0.00,,2013-02-20 01:21:00,
2013-02-19 19:32:00,55.0,26.0,29.83,ENE,78,3.0,8.0,33,0.00,,,0.00,,2013-02-20 01:32:00,
2013-02-19 19:42:00,55.0,26.0,29.83,ENE,78,3.0,8.0,33,0.00,,,0.00,,2013-02-20 01:42:00,
2013-02-19 19:52:00,55.0,26.0,29.83,East,86,1.0,7.0,33,0.00,,,0.00,,2013-02-20 01:52:00,
2013-02-19 20:01:00,55.0,26.0,29.83,ENE,63,4.0,8.0,33,0.00,,,0.00,,2013-02-20 02:01:00,
2013-02-19 20:11:00,55.0,26.0,29.83,ENE,63,4.0,8.0,33,0.00,,,0.00,,2013-02-20 02:11:00,
2013-02-19 20:21:00,55.0,26.0,29.83,ENE,76,3.0,7.0,33,0.00,,,0.00,,2013-02-20 02:21:00,
2013-02-19 20:32:00,55.0,26.0,29.83,ENE,74,2.0,5.0,33,0.00,,,0.00,,2013-02-20 02:32:00,
2013-02-19 20:42:00,55.0,26.0,29.83,ENE,74,2.0,5.0,33,0.00,,,0.00,,2013-02-20 02:42:00,
2013-02-19 20:52:00,54.0,26.0,29.84,ENE,75,1.0,4.0,34,0.00,,,0.00,,2013-02-20 02:52:00,
2013-02-19 21:01:00,54.0,26.0,29.84,East,89,1.0,4.0,33,0.00,,,0.00,,2013-02-20 03:01:00,
2013-02-19 21:12:00,54.0,26.0,29.84,East,89,1.0,4.0,33,0.00,,,0.00,,2013-02-20 03:12:00,
2013-02-19 21:22:00,55.0,26.0,29.85,East,86,2.0,7.0,33,0.00,,,0.00,,2013-02-20 03:22:00,
2013-02-19 21:32:00,55.0,26.0,29.84,ESE,105,6.0,10.0,32,0.00,,,0.00,,2013-02-20 03:32:00,
2013-02-19 21:41:00,55.0,26.0,29.84,ESE,105,6.0,10.0,32,0.00,,,0.00,,2013-02-20 03:41:00,
2013-02-19 21:51:00,55.0,26.0,29.84,ESE,105,6.0,10.0,32,0.00,,,0.00,,2013-02-20 03:51:00,
2013-02-19 22:01:00,52.0,34.0,29.85,ENE,71,1.0,6.0,51,0.01,,,0.01,,2013-02-20 04:01:00,
2013-02-19 22:11:00,52.0,34.0,29.85,ENE,71,1.0,6.0,51,0.01,,,0.01,,2013-02-20 04:11:00,
2013-02-19 22:21:00,50.0,37.0,29.85,East,79,1.0,6.0,60,0.02,,,0.02,,2013-02-20 04:21:00,
2013-02-19 22:31:00,49.0,38.0,29.83,ENE,62,1.0,4.0,65,0.02,,,0.02,,2013-02-20 04:31:00,
2013-02-19 22:42:00,49.0,38.0,29.83,ENE,62,1.0,4.0,65,0.02,,,0.02,,2013-02-20 04:42:00,
2013-02-19 22:52:00,49.0,37.0,29.83,NE,56,2.0,4.0,62,0.02,,,0.02,,2013-02-20 04:52:00,
2013-02-19 23:02:00,49.0,36.0,29.82,ENE,57,2.0,6.0,60,0.01,,,0.02,,2013-02-20 05:02:00,
2013-02-19 23:12:00,49.0,36.0,29.82,ENE,57,2.0,6.0,60,0.01,,,0.02,,2013-02-20 05:12:00,
2013-02-19 23:22:00,50.0,35.0,29.82,ENE,73,3.0,7.0,57,0.00,,,0.02,,2013-02-20 05:22:00,
2013-02-19 23:32:00,50.0,36.0,29.81,East,83,3.0,11.0,58,0.00,,,0.02,,2013-02-20 05:32:00,
2013-02-19 23:43:00,50.0,36.0,29.81,East,83,3.0,11.0,58,0.00,,,0.02,,2013-02-20 05:43:00,
2013-02-19 23:52:00,50.0,35.0,29.80,East,80,3.0,9.0,56,0.00,,,0.02,,2013-02-20 05:52:00,